Theta_e
312 312 313 313 314 315 315 316 317 319 319 319 318 318 317 319 318 317 316 314 312 321 323 325 328 329 323 324 316 313 322 324 323 317 321 315 322 320 318 320 319 319 322 323 325
313 313 312 313 313 314 314 315 315 315 315 315 316 316 316 317 317 316 316 315 316 317 321 326 326 324 323 324 319 320 324 324 320 316 317 318 321 322 322 320 320 320 319 322 324
312 312 312 312 312 313 313 315 314 315 315 315 315 315 316 317 315 315 314 315 318 319 320 324 327 323 324 320 320 319 325 321 321 319 317 320 322 321 320 323 320 321 321 318 322
311 312 311 312 312 312 313 313 315 313 314 315 314 314 314 315 316 316 316 317 318 320 319 323 328 324 326 325 320 322 320 320 322 321 322 323 321 322 319 323 320 319 316 315 317
312 311 312 312 313 312 311 311 313 314 314 314 313 312 313 314 314 315 312 311 316 319 319 322 327 323 328 324 321 322 323 321 321 321 321 321 322 322 320 319 317 315 316 316 315
312 312 313 312 311 312 312 312 311 313 314 313 313 311 312 314 310 311 312 311 311 317 319 321 326 320 323 324 326 323 324 324 322 324 320 321 323 318 323 317 317 315 315 313 312
313 313 313 310 312 311 312 312 312 311 313 313 311 311 311 311 309 310 311 311 310 314 318 320 324 322 322 324 321 322 326 322 321 320 321 318 321 319 320 316 317 316 312 312 313
313 313 311 310 311 311 312 312 312 312 311 312 311 311 311 309 309 310 310 311 313 313 317 319 322 325 323 320 320 324 320 329 323 318 318 318 327 319 314 315 316 314 312 314 314
313 312 310 306 310 312 312 310 309 311 311 311 310 310 310 308 310 309 309 309 312 317 318 318 323 327 325 323 323 320 330 322 324 318 320 319 321 318 314 315 316 313 314 315 315
312 312 311 307 308 311 313 310 307 309 310 309 309 310 309 311 310 310 309 308 313 318 320 320 326 328 327 328 333 326 324 320 323 319 316 317 318 316 315 314 316 313 314 315 315
311 311 310 309 309 310 313 308 307 308 309 309 310 309 310 308 312 310 310 310 311 319 320 321 331 332 329 327 325 319 322 326 322 316 316 317 316 317 316 314 314 311 314 315 315
310 310 310 309 311 311 312 309 307 307 309 308 309 309 309 311 314 313 310 312 314 318 318 325 332 328 325 325 323 321 323 321 319 315 316 318 319 318 315 315 314 312 314 315 314
309 310 309 309 312 313 312 308 308 309 310 310 308 310 311 310 312 314 311 314 318 315 319 326 327 327 327 327 328 322 323 321 325 318 316 316 320 317 315 313 311 311 314 314 315
307 309 309 310 313 313 311 308 309 306 312 312 309 309 312 312 312 310 311 314 318 315 316 324 328 328 328 327 327 330 321 322 322 325 328 316 325 318 317 314 313 313 314 314 314
309 308 309 309 312 312 312 310 308 307 317 312 310 310 312 312 313 315 312 314 318 315 318 327 331 329 330 328 325 328 323 324 323 321 316 317 321 320 313 315 316 314 314 314 314
309 307 309 310 312 312 312 310 310 314 315 315 313 314 314 313 314 315 313 314 320 316 317 326 327 328 329 325 325 315 317 317 315 317 322 318 321 322 317 316 314 313 313 314 313
310 309 308 309 314 312 311 309 314 317 313 316 314 314 313 314 314 315 316 315 319 318 319 323 331 327 327 323 319 319 326 331 326 324 325 314 317 320 315 313 315 315 313 313 313
311 310 309 309 311 312 310 314 319 315 313 314 314 313 315 315 316 317 316 317 317 321 316 325 329 324 321 327 326 326 326 325 328 325 322 313 321 319 313 313 311 313 313 313 313
312 310 310 310 311 311 311 315 317 316 312 316 314 313 315 315 316 318 318 317 318 318 317 323 325 318 316 317 325 321 327 317 319 316 322 321 318 316 314 314 312 312 313 314 313
309 308 311 311 311 309 309 316 317 316 315 315 313 313 314 316 318 319 317 320 319 320 315 319 319 316 312 313 312 320 317 326 318 326 327 322 318 322 316 314 314 312 313 313 312
308 311 314 312 312 310 314 314 316 316 315 315 318 317 313 314 319 320 319 322 322 321 314 312 315 316 313 316 315 316 319 315 317 318 324 322 321 312 313 311 313 313 312 312 312
306 316 313 312 316 314 316 316 316 321 318 319 319 319 316 314 318 321 322 321 321 320 316 312 313 320 316 314 313 313 316 315 321 318 313 315 320 310 310 309 310 312 311 311 311
309 316 313 312 320 317 317 317 316 323 321 324 323 320 316 316 323 323 322 319 320 322 318 316 317 321 322 319 316 315 311 312 312 312 314 319 320 311 311 313 312 312 311 310 310
307 320 316 314 316 319 324 324 324 323 324 324 321 319 320 322 322 323 325 322 320 319 320 317 316 319 325 321 317 319 314 311 315 317 316 315 316 315 315 315 313 312 312 310 309
305 310 315 318 318 318 322 324 323 326 323 324 323 321 321 324 324 324 323 319 319 321 317 317 320 317 314 317 317 317 317 312 315 316 320 318 315 314 314 314 313 312 311 311 309
308 307 306 311 311 319 320 324 324 323 323 325 324 320 322 321 322 323 320 320 322 316 316 313 318 313 313 314 316 319 316 315 314 313 314 314 315 311 310 311 312 312 310 310 310
305 305 306 311 311 317 317 320 322 320 320 314 319 319 324 315 312 317 315 314 316 315 314 315 311 315 318 312 312 317 313 315 315 312 315 317 317 310 314 313 312 311 311 311 309
Wind_Speed
9 8 7 8 8 8 7 7 7 7 9 12 12 11 11 12 10 9 7 12 11 13 12 16 7 14 3 1 3 2 3 3 4 5 4 2 4 2 2 5 4 3 3 4 11
8 8 8 8 8 8 8 8 9 9 10 11 10 11 10 9 11 14 17 18 17 18 10 7 3 10 3 3 3 3 4 9 5 4 4 3 3 3 3 3 5 5 4 6 8
8 7 8 8 8 9 10 9 9 9 9 9 9 9 7 8 4 7 20 26 25 19 15 11 7 5 5 3 4 5 5 5 3 6 4 4 5 2 2 5 6 7 11 10 4
9 9 8 8 9 8 9 9 8 9 9 10 10 9 7 9 8 8 10 3 22 22 17 8 6 6 7 7 4 3 6 4 3 4 2 3 3 5 7 12 6 9 8 7 12
10 9 8 9 10 10 9 8 9 9 8 8 9 9 9 6 9 10 3 8 4 21 20 14 9 6 10 9 5 4 3 4 6 6 6 3 10 9 13 15 14 8 7 9 9
11 10 10 10 12 11 11 10 8 8 9 9 8 11 6 13 8 23 29 22 11 15 20 18 8 5 6 6 12 7 8 10 4 7 4 6 8 5 17 6 9 3 8 10 8
11 11 11 10 12 13 12 11 10 9 9 9 9 14 4 12 6 6 6 6 14 10 17 22 20 7 8 5 4 5 3 4 4 3 6 4 7 8 15 7 8 6 6 6 6
11 11 11 11 13 14 13 12 10 9 7 7 8 11 6 3 23 19 8 8 9 11 23 21 22 4 4 5 4 8 3 8 3 4 3 4 12 7 8 2 5 5 2 5 6
12 11 12 13 14 13 14 12 10 8 6 5 7 6 6 7 13 24 23 10 9 10 18 19 10 7 4 6 5 3 5 4 5 6 5 6 7 4 2 3 6 4 4 5 5
12 14 13 13 16 14 14 10 5 6 6 6 2 3 5 5 7 7 18 22 6 8 6 11 8 8 7 9 12 9 6 3 5 2 3 4 13 14 9 7 7 2 4 5 5
12 15 16 16 16 13 10 11 4 1 7 8 7 3 2 15 6 9 13 13 4 8 12 17 9 14 20 11 6 7 6 10 3 2 2 5 6 14 8 5 7 4 7 6 6
12 13 15 15 14 13 15 5 6 4 4 13 6 17 10 3 3 5 17 10 6 9 12 9 15 10 11 9 6 6 5 5 4 1 2 6 15 14 6 5 5 9 9 9 7
13 12 14 13 12 15 14 17 11 3 1 5 15 6 6 13 4 4 14 8 8 11 20 16 12 14 12 10 9 4 6 4 3 3 1 5 6 5 2 1 3 5 9 8 10
13 12 12 13 8 6 7 24 15 9 3 5 11 7 7 4 5 13 23 10 6 15 17 13 3 18 17 16 10 11 5 4 2 4 2 4 6 5 6 3 4 6 7 10 10
13 12 11 9 3 4 5 25 15 7 4 10 8 2 8 10 3 8 26 11 10 8 9 5 8 23 19 19 11 4 6 5 3 3 2 1 2 6 2 4 6 8 8 8 9
13 12 9 9 14 5 11 24 12 3 5 9 7 8 10 4 2 13 13 8 1 6 14 3 0 12 7 9 10 8 6 4 3 1 2 5 5 5 3 4 4 5 8 9 10
12 12 13 11 3 13 24 10 3 4 5 7 5 8 11 6 6 10 17 19 5 10 15 9 4 3 4 11 5 4 7 2 2 3 5 2 2 9 3 4 6 13 13 11 10
11 12 15 20 10 23 18 3 7 4 5 5 6 12 7 7 6 11 17 12 10 5 11 8 2 7 6 5 7 4 7 4 5 4 3 3 5 5 2 4 5 6 11 10 11
8 9 13 23 19 27 4 4 3 3 8 11 10 14 6 7 6 10 12 12 11 11 7 12 4 1 4 5 10 3 5 3 4 2 1 2 5 7 1 4 3 8 14 13 11
2 3 5 16 28 18 2 5 4 5 10 15 7 7 9 12 8 11 12 10 13 13 5 4 3 3 4 5 3 6 8 2 1 4 3 3 4 4 5 5 3 5 10 9 8
6 2 3 20 25 4 3 5 5 7 13 12 6 6 7 8 7 11 13 3 11 17 5 5 4 1 5 4 7 3 2 2 4 3 3 0 4 4 5 5 4 9 10 11 10
4 2 6 30 6 3 3 5 7 9 17 12 8 5 7 10 8 6 10 5 16 8 7 6 6 4 4 1 4 6 8 7 4 3 1 2 5 1 6 6 5 9 9 8 8
3 2 12 7 3 5 4 13 13 9 12 4 5 4 9 8 7 5 7 11 14 16 9 6 2 5 4 1 3 4 4 4 4 3 6 5 4 1 3 3 2 7 7 8 7
2 3 3 4 2 3 5 2 5 4 2 3 4 7 7 9 2 6 7 5 10 11 4 5 3 5 8 4 6 5 5 5 8 4 5 6 4 3 1 4 4 4 5 7 8
2 5 4 5 7 10 4 6 9 5 7 3 5 14 10 5 4 5 5 4 3 8 4 3 3 3 1 2 6 6 8 11 10 10 10 7 8 6 5 5 5 5 6 6 7
3 3 1 2 3 7 7 4 11 6 4 5 9 18 5 6 6 10 8 5 8 3 6 2 3 3 1 2 4 5 6 12 11 4 7 5 7 4 3 5 4 4 5 5 5
3 3 2 2 2 4 4 5 6 5 2 3 12 5 4 1 3 7 7 3 6 6 4 5 6 4 3 2 5 4 10 11 7 5 11 11 9 7 4 6 5 5 6 5 5
Wind_Direction
331 332 329 322 312 304 295 273 259 251 245 245 238 241 240 237 234 227 226 234 249 233 297 311 243 212 240 207 119 153 109 182 227 173 245 253 341 269 273 267 314 256 236 289 335
325 324 326 319 310 299 287 274 264 255 249 246 246 241 245 229 236 240 245 255 251 255 267 296 226 161 197 198 163 148 175 199 203 198 239 277 260 298 311 302 286 279 258 290 329
307 314 322 323 315 293 278 266 258 256 254 251 238 237 229 202 285 251 264 250 241 243 236 250 297 178 184 159 188 176 194 205 226 227 238 264 295 246 283 287 228 275 304 319 308
294 294 299 302 297 287 272 266 255 250 245 238 234 227 208 172 234 144 86 262 240 228 226 222 230 193 167 184 184 182 233 197 220 221 229 253 288 272 207 255 244 252 283 287 303
285 286 290 293 283 276 269 261 252 247 232 233 230 212 165 212 238 190 203 4 350 212 214 209 204 179 185 186 142 196 225 196 229 264 247 254 252 254 259 257 260 283 290 293 296
278 279 278 284 277 267 259 258 257 245 234 227 225 193 169 232 290 244 267 278 296 213 217 210 208 217 171 178 192 192 206 246 259 266 252 244 274 139 267 239 255 271 305 310 289
276 283 274 287 265 264 257 255 248 243 233 229 221 196 223 231 249 206 263 291 253 223 219 218 232 221 143 148 194 157 197 273 225 243 254 195 266 232 270 244 267 290 330 357 25
265 277 280 285 270 265 254 247 239 235 235 236 210 184 238 242 236 239 241 306 233 228 222 229 241 245 215 133 90 161 160 245 246 177 261 166 269 284 330 214 308 318 22 61 40
263 264 275 290 278 275 248 233 236 222 211 226 170 188 250 244 226 242 229 241 288 210 214 226 266 216 175 155 148 192 206 207 282 218 213 194 288 251 183 36 290 304 77 75 42
261 268 271 288 278 276 249 207 216 180 167 144 133 161 258 224 205 214 215 214 256 175 186 203 225 185 188 191 198 181 181 168 204 184 168 242 269 285 285 235 246 194 132 104 74
261 264 269 273 283 256 204 133 95 193 199 190 174 236 256 220 196 204 183 172 224 186 188 202 210 190 187 188 188 147 153 196 238 251 231 251 271 288 288 231 254 197 158 135 104
261 266 272 282 280 243 205 188 196 166 183 229 231 222 246 358 203 206 165 166 191 175 193 193 210 173 175 157 140 154 155 205 273 173 211 298 292 272 275 249 208 176 169 157 136
258 261 276 297 277 247 206 192 161 140 358 209 208 225 222 190 232 207 179 174 210 167 196 208 180 172 163 172 173 174 162 176 215 322 236 304 287 314 296 181 93 139 160 153 143
257 259 276 307 268 183 189 191 179 148 249 196 182 236 200 162 234 219 190 171 184 184 194 237 254 171 172 185 179 207 175 144 108 32 267 19 292 283 283 262 147 158 179 150 142
255 254 263 272 164 181 198 185 161 133 255 143 159 245 157 164 196 185 191 201 169 157 181 201 206 170 177 187 175 196 167 175 178 177 30 318 248 277 340 264 195 187 188 165 147
255 249 247 259 217 211 175 152 135 208 245 184 156 164 159 193 245 157 176 233 258 145 188 252 118 166 175 157 158 149 89 68 68 101 282 218 197 271 226 212 158 164 189 175 155
255 247 229 230 256 204 158 132 168 231 136 167 167 151 167 164 223 164 177 207 197 144 199 224 172 125 113 118 40 126 109 64 207 200 227 127 167 254 269 242 189 183 184 180 166
263 252 238 229 211 162 151 198 225 152 177 180 133 149 174 145 215 176 171 205 209 285 170 197 132 155 176 142 149 191 133 182 183 185 226 123 226 249 201 281 250 185 167 165 166
269 264 240 223 196 158 146 215 235 180 167 159 120 165 194 192 148 166 190 191 195 227 159 182 201 235 156 128 151 176 178 165 110 59 88 231 284 300 258 13 56 159 163 174 167
248 231 233 204 182 143 156 249 243 198 185 156 152 181 178 185 178 171 174 188 188 232 246 168 94 193 117 106 44 146 152 168 347 188 228 281 280 246 330 357 97 154 172 170 153
176 220 186 168 147 153 218 228 271 248 156 177 142 166 171 171 178 172 178 159 191 213 199 159 103 286 119 198 161 135 120 233 141 133 168 272 265 215 268 281 242 186 179 169 168
158 232 156 161 161 188 213 200 225 218 202 208 161 140 156 153 166 175 182 232 171 181 174 213 127 140 180 99 204 164 176 180 150 198 101 124 273 280 280 281 218 177 171 172 167
186 125 153 188 228 221 232 245 213 185 206 204 163 164 147 147 180 168 166 202 187 200 183 182 135 110 113 357 28 189 165 162 115 85 181 154 252 341 13 64 139 166 167 164 152
144 150 133 236 254 284 217 215 173 208 234 227 181 132 138 150 159 172 153 187 184 199 201 123 128 160 191 153 137 174 171 182 178 179 177 218 238 281 10 118 131 163 169 168 169
169 227 179 192 231 228 215 200 226 200 226 238 157 173 161 136 124 135 159 121 144 151 115 160 169 147 7 225 188 177 178 179 197 203 204 214 212 228 185 154 156 154 162 157 164
195 177 214 248 232 186 193 220 196 215 212 189 151 189 184 152 189 171 146 181 161 176 125 296 182 131 80 126 172 203 203 196 205 166 240 165 238 190 127 112 117 140 152 168 174
225 272 153 203 191 178 198 193 201 174 100 28 140 123 120 128 217 133 105 98 133 129 121 147 138 145 211 161 143 284 206 191 201 194 203 210 228 160 137 136 136 123 120 137 167